www.pogodaiklimat.ru

Погода и климат >> Архив погоды >> Китай >> Внутренняя Монголия >> Баян Мод


ПОГОДА в Баян Мод

  • Прогноз погоды в Баян Мод
  • Монитор погоды в Баян Мод

АРХИВ ПОГОДЫ в Баян Мод

Время (UTC), дата Ветер
(напр.,м/с)
 
Видим.   Явления Облачность Т
(С)
Тd
(С)
f
(%)
Тe
(С)
Тes
(С)
Комфортность P
(гПа)
Po
(гПа)
Тmin
(С)
Tmax
(С)
R
(мм)
R24
(мм)
S
(см)
03 12.03 В 6 30 км ясно +1.7 -18.3 21 -3 0 1024.8 868.7
06 12.03 В 2 30 км ясно +7.0 -19.6 13 +6 +17 опасность
простуды
1022.3 868.3 -8.9
09 12.03 В 2 30 км ясно +8.5 -22.6 9 +8 +11 1022.4 870.1
12 12.03 С 2 30 км ясно +4.4 -23.5 11 +3 +3 1026.4 870.5
15 12.03 З 1 30 км н/о -1.0 -21.1 20 -2 -2 1027.2 869.3
18 12.03 ЮВ 1 30 км ?/? -6.7 -23.0 26 -8 -8 1028.0 872.7 +9.0
21 12.03 штиль 0 30 км н/о -9.1 -23.1 31 -9 -9 1028.1 865.6
00 13.03 штиль 0 30 км 6/6
[]
-6.5 -20.1 33 -7 -6 1030.0 873.8
03 13.03 ЮВ 1 15 км 8/8
[]
+5.7 -16.8 18 +6 +8 1028.9 874.2
06 13.03 З 9 30 км 3/3
[]
+9.7 -24.5 7 +6 +7 1028.1 873.5 -10.6
09 13.03 С 8 30 км 3/3
[]
+10.7 -29.9 4 +8 +8 1028.3 876.3
12 13.03 С 7 30 км 3/3
[]
+6.3 -24.3 9 +3 +3 1030.9 875.1
15 13.03 З 4 30 км н/о -0.4 -21.8 18 -5 -5 1030.3 872.3
18 13.03 СЗ 2 30 км ?/? -1.0 -23.7 16 -3 -3 1028.8 875.6 +11.0
21 13.03 В 1 30 км н/о -4.8 -23.8 21 -6 -6 1029.3 869.0
00 14.03 СЗ 1 30 км ясно -4.3 -20.9 26 -6 -5 1031.9 876.5
03 14.03 В 1 30 км ясно +4.8 -18.9 16 +5 +15 опасность
простуды
1032.7 877.0
06 14.03 СЗ 3 30 км ясно +8.9 -23.6 8 +8 +17 1030.7 877.0 -8.4
09 14.03 С 5 30 км ясно +10.2 -24.2 7 +8 +10 1030.4 877.8
12 14.03 С 3 30 км ясно +6.7 -22.8 10 +5 +5 1032.9 877.4
15 14.03 З 2 30 км н/о -2.9 -23.3 19 -6 -6 1034.4 874.4
18 14.03 СВ 1 30 км ?/? -4.4 -21.0 26 -6 -6 1032.2 877.4 +10.5
21 14.03 В 1 30 км н/о -7.9 -22.5 30 -10 -10 1031.6 869.3
00 15.03 СВ 1 17 км ясно -6.7 -19.0 37 -8 -8 1032.6 876.6
03 15.03 СВ 2 26 км ясно +6.7 -17.4 16 +6 +15 опасность
простуды
1030.4 876.0
06 15.03 В 1 30 км ясно +11.5 -29.3 4 +12 +26 опасность
простуды
1026.1 872.9 -9.2
09 15.03 С 3 30 км ясно +12.6 -35.7 2 +12 +14 1023.9 873.4
12 15.03 С 3 30 км ясно +8.1 -29.4 5 +7 +7 1026.1 871.4
15 15.03 штиль 0 30 км н/о +2.2 -26.3 10 +3 +3 1025.6 869.6
18 15.03 Ю 1 30 км ?/? -2.9 -27.5 13 -4 -4 1025.6 872.8 +13.1
21 15.03 З 2 30 км н/о -7.4 -26.5 20 -11 -11 1026.0 864.8
00 16.03 ЮЗ 2 19 км ясно -8.7 -26.6 22 -13 -12 1029.3 873.6
03 16.03 СВ 1 11 км ясно +8.3 -22.8 9 +9 +20 опасность
простуды
1027.3 874.2
06 16.03 С 2 30 км ясно +12.3 -31.8 3 +12 +24 опасность
простуды
1025.8 873.2 -10.4
09 16.03 В 3 30 км ясно +12.6 -42.5 1 +12 +15 1024.8 874.2
12 16.03 ЮЗ 1 14 км 9/9
[]
+8.0 -34.8 3 +9 +9 1027.7 872.2
15 16.03 штиль 0 30 км н/о +0.1 -26.9 11 +1 +1 1025.6 868.5
18 16.03 В 1 30 км ?/? -3.1 -28.5 12 -4 -4 1024.2 871.8 +13.3
21 16.03 В 2 30 км н/о -3.2 -23.6 19 -6 -6 1022.4 864.1
00 17.03 В 2 30 км 9/9
[]
-3.1 -21.8 22 -6 -6 1023.5 870.1
03 17.03 З 8 30 км 9/9
[]
+12.6 -31.6 3 +10 +11 1020.4 870.4
06 17.03 З 8 30 км 9/9
[]
+14.6 -34.4 2 +13 +13 1018.3 867.3 -4.6
09 17.03 З 6 30 км 9/9
[]
+15.0 -34.2 2 +14 +14 1016.3 868.1
12 17.03 З 3 30 км 9/9
[]
+10.8 -27.4 5 +10 +10 1018.6 866.6
15 17.03 З 3 30 км н/о +6.3 -24.3 9 +4 +4 1015.6 863.3
18 17.03 С 1 30 км ?/? +0.7 -20.3 19 0 0 1015.1 865.5 +15.7
21 17.03 С 2 30 км н/о -1.9 -19.3 25 -5 -5 1013.8 857.5
00 18.03 В 2 26 км 9/9
[]
-2.7 -17.9 30 -6 -6 1015.5 864.1
03 18.03 З 7 20 км 9/9
[]
+13.9 -23.1 6 +12 +12 1011.1 863.1
06 18.03 З 6 19 км ясно +16.6 -23.2 5 +16 +20 1009.6 861.3 -3.6
09 18.03 З 6 23 км ясно +17.2 -32.7 2 +16 +18 1007.1 861.3
12 18.03 СЗ 3 26 км ясно +11.8 -29.1 4 +11 +11 1008.5 858.4
15 18.03 В 1 7000 м н/о +2.5 -22.3 14 +2 +2 1007.0 854.0
18 18.03 штиль 0 24 км ?/? -0.1 -22.9 16 0 0 1005.6 857.7 +17.6
21 18.03 С 2 24 км н/о +0.5 -20.5 19 -2 -2 1003.4 849.9
00 19.03 штиль 0 18 км 9/9 2000 м
[]
+2.4 -19.5 18 +3 +3 1004.5 856.2

 

Местоположение метеостанции Баян Мод (Внутренняя Монголия, Китай): широта 40.75 долгота 104.50 высота над уровнем моря 1329 м.

В архиве по умолчанию представлена погода в Баян Мод за последнюю неделю. Архивные данные за месяц целиком и за предыдущие месяцы, начиная с января 2011 года, Вы можете получить, выбрав интересующий диапазон дат из раскрывающегося списка и нажав кнопку "Ввод!".


*Определитесь, кто Вы:
робот инопланетянин человек

Внимание! Время в таблицах - всемирное. Для получения местного времени необходимо прибавить поправку, которая равна 8 ч.

Смотрите также архив погоды в соседних городах и на ближайших метеорологических станциях:

Погода в Джартае (Внутренняя Монголия, Китай) (151 км)
Погода в Баинвендурьере (Внутренняя Монголия, Китай) (176 км)
Погода в Гуайцзыху (Внутренняя Монголия, Китай) (192 км)
Погода в Линьхэ (Внутренняя Монголия, Китай) (244 км)
Погода в Миньцине (Цинхай, Китай) (265 км)
Погода в Иньчуане (Нинся-Хуэйский автономный район, Китай) (292 км)
Погода в Даланзадгаде (Монголия) (315 км)
Погода в Эдзин-Ци (Внутренняя Монголия, Китай) (317 км)
Погода в Хэй Лю Чжэнь (Внутренняя Монголия, Китай) (348 км)
Погода в Отог-Ци (Внутренняя Монголия, Китай) (349 км)

Пояснения к столбцам:

Ветер - указаны скорость ветра в м/с - средняя за 10 мин, порывы в срок и между сроками (в фигурных скобках) и направление, откуда дует ветер: С - северный, СВ - северо-восточный, В - восточный, ЮВ - юго-восточный, Ю - южный, ЮЗ - юго-западный, З - западный, СЗ - северо-западный.
Видимость - горизонтальная дальность видимости в метрах или километрах. При видимости от 1 до 10 км при отсутствии осадков обычно наблюдается дымка, при ухудшении видимости до 1 км и менее - туман. В сухую погоду видимость может ухудшаться дымом, пылью или мглою.
Явления - указаны атмосферные явления, наблюдавшиеся в срок или в последний час перед сроком; фигурными скобками обозначены явления, наблюдавшиеся между сроками (за 1-3 часа до срока); квадратными скобками обозначены град или гололедные отложения с указанием их диаметра в мм.
Облачность - указаны через наклонную черту общая и нижняя облачность в баллах и высота нижней границы облаков в метрах; квадратными скобками обозначены формы облаков: Ci - перистые, Cs - перисто-слоистые, Cc - перисто-кучевые, Ac - высококучевые, As - высокослоистые, Sc - слоисто-кучевые, Ns - слоисто-дождевые, Cu - кучевые, Cb - кучево-дождевые. Подробнее классификацию облаков см. в Атласе облаков (PDF).
T - Температура воздуха - температура, измеренная на высоте 2 м над землей.
Td - Температура точки росы - температура, при понижении до которой содержащийся в воздухе водяной пар достигнет насыщения.
f - Относительная влажность воздуха - влажноcть воздуха, измеренная на высоте 2 м над землей.
Te - Эффективная температура - температура, которую ощущает одетый по сезону человек в тени. Характеристика душности погоды. При расчете учитывается влияние влажности воздуха и скорости ветра на теплоощущения человека.
Tes - Эффективная температура на солнце - температура, которую ощущает человек, с поправкой на солнечный нагрев. Характеристика знойности погоды. Зависит от высоты солнца над горизонтом, облачности и скорости ветра. Ночью, в пасмурную погоду, а также при ветре 12 м/с и более поправка равна нулю.
P - Атмосферное давление - приведенное к уровню моря атмосферное давление.
Po - Атмосферное давление - измеренное на уровне метеостанции атмосферное давление.
Tmin - Минимальная температура - минимум температуры воздуха на высоте 2 м над землей.
Tmax - Максимальная температура - максимум температуры воздуха на высоте 2 м над землей.
R - Количество осадков - Количество выпавших осадков за период времени, мм. При наведении курсора мыши на число - период времени, за который выпало указанное количество осадков.
R24 - Количество осадков - Количество выпавших осадков за 24 часа, мм.
S - Снежный покров - Высота снежного покрова, см. При наведении курсора мыши на число - состояние снежного покрова и степень покрытия местности в баллах.